Tracking 25707 objects as of 30-Jun-2022
HD Live streaming from Space Station
objects crossing your sky now

STARLINK-2370

Track STARLINK-2370 now!
10-day predictions
STARLINK-2370 is classified as:


NORAD ID: 47910
Int'l Code: 2021-021BC
Perigee: 553.4 km
Apogee: 555.4 km
Inclination: 53.1 °
Period: 95.6 minutes
Semi major axis: 6925 km
RCS: Unknown
Launch date: March 14, 2021
Source: United States (US)
Launch site: AIR FORCE EASTERN TEST RANGE (AFETR)
aabbcc
Your satellite tracking list
Your tracking list is empty




NASA's NSSDC Master Catalog

Two Line Element Set (TLE):
1 47910U 21021BC  22180.45995348 -.00000673  00000-0 -26288-4 0  9995
2 47910  53.0552 208.5563 0001464  67.6743 292.4401 15.06380341 72350
Source of the keplerian elements: AFSPC